User: anonymous   Login
Location: Cincinnati Observatory Center
(39.1389°N, 84.4225°W)
Time: 08:43:45
(UTC-05:00)
Language:

JAS-1B - Orbit

View from above orbital plane
View from above orbital plane
View from above satellite
View from above satellite

Ground track
Ground track

The orbit data is extracted from the following two-line orbital elements,

1 20480U 90013C   18019.18144243 -.00000027  00000-0  21051-4 0  9996
2 20480  99.0723 117.1717 0539418 262.0093  91.9490 12.83418415309420
Epoch (UTC): 19 January 2018 04:21:16
Eccentricity: 0.0539418
inclination: 99.0723°
perigee height: 912 km
apogee height: 1743 km
right ascension of ascending node: 117.1717°
argument of perigee: 262.0093°
revolutions per day: 12.83418415
mean anomaly at epoch: 91.9490°
orbit number at epoch: 30942

The dashed part of the orbit path shows where the satellite is in the earth's shadow,  

DLR